Location: Hackbridge
(51.3833°N, 0.1500°W)
Time: 13:52:20
(UTC+00:00)

In-Cosmos 22 Rocket - Pass Details

Date: 13 October 2019
Orbit: 790 x 888 km, 81.2° (Epoch: 14 November)

Event Time Altitude Azimuth Distance (km) Brightness Sun altitude
Rises 20:23:02 0° 345° (NNW) 3,305 7.9 -29.8°
Reaches altitude 10° 20:25:25 10° 343° (NNW) 2,375 7.0 -30.1°
Enters shadow 20:30:06 60° 298° (WNW) 914 4.5 -30.8°
